Poplar Bluff, MO

1:04 AM CDT on March 26, 2017 (GMT -0500)
Poplar Bluff Municipal

Weather History for KPOF - September, 2014

Change the Weather History Date:

Thursday, September 4, 2014

  Actual Average Record
Temperature  
Mean Temperature 78 °F -  
Max Temperature 91 °F 85 °F 106 °F (1925)
Min Temperature 66 °F 63 °F 47 °F (1974)
Cooling Degree Days 14    
Growing Degree Days 28 (Base 50)    
Moisture  
Dew Point 69 °F    
Average Humidity 76    
Maximum Humidity 90    
Minimum Humidity 52    
Precipitation  
Precipitation 0.00 in - - ()
Sea Level Pressure  
Sea Level Pressure 30.01 in    
Wind  
Wind Speed 2 mph (South)    
Max Wind Speed 12 mph    
Max Gust Speed 17 mph    
Visibility 8 miles    
Events      
Averages and records for this station are not official NWS values.
T = Trace of Precipitation, MM = Missing Value Source: NWS Daily Summary

Daily Weather History Graph

Daily Weather History Graph

Search for Another Location

Airport or City:

Trip Planner

Search our weather history database for the weather conditions in past years. The results will help you decide how hot, cold, wet, or windy it might be!

Date:

Astronomy

Sep. 04, 2014 Rise Set
Actual Time 6:34 AM CDT 7:25 PM CDT
Civil Twilight 6:08 AM CDT 7:51 PM CDT
Nautical Twilight 5:37 AM CDT 8:22 PM CDT
Astronomical Twilight 5:05 AM CDT 8:54 PM CDT
Moon 3:58 PM CDT (9/4) 1:30 AM CDT (9/4)
Length of Visible Light 13h 43m
Length of Day
12h 50m
Waxing Gibbous, 74% of the Moon is Illuminated
Sep 4
Waxing Gibbous
Sep 8
Full
Sep 15
Last Quarter
Sep 24
New
Oct 1
First Quarter

Hourly Weather History & Observations

Time (CDT) Temp. Heat Index Dew Point Humidity Pressure Visibility Wind Dir Wind Speed Gust Speed Precip Events Conditions
12:53 AM 69.1 °F - 66.0 °F 90% 30.01 in 10.0 mi Calm Calm - N/A   Clear
1:53 AM 69.1 °F - 64.9 °F 87% 30.00 in 8.0 mi Calm Calm - N/A   Clear
2:53 AM 68.0 °F - 64.9 °F 90% 29.99 in 10.0 mi Calm Calm - N/A   Clear
3:53 AM 69.1 °F - 64.9 °F 87% 29.99 in 6.0 mi Calm Calm - N/A   Clear
4:21 AM 68.0 °F - 64.9 °F 90% 30.00 in 2.0 mi Calm Calm - N/A   Clear
4:28 AM 66.9 °F - 64.0 °F 90% 30.01 in 1.0 mi Calm Calm - N/A   Clear
4:40 AM 68.0 °F - 64.9 °F 90% 30.01 in 3.0 mi Calm Calm - N/A   Clear
4:53 AM 68.0 °F - 64.0 °F 87% 30.00 in 4.0 mi Calm Calm - N/A   Clear
5:20 AM 68.0 °F - 64.9 °F 90% 30.01 in 1.8 mi Calm Calm - N/A   Clear
5:27 AM 68.0 °F - 64.4 °F 88% 30.00 in 3.0 mi Calm Calm - N/A   Clear
5:53 AM 66.9 °F - 64.0 °F 90% 30.00 in 9.0 mi Calm Calm - N/A   Clear
6:53 AM 68.0 °F - 64.9 °F 90% 30.01 in 4.0 mi Calm Calm - N/A   Clear
7:53 AM 73.0 °F - 68.0 °F 84% 30.02 in 6.0 mi Calm Calm - N/A   Haze
8:53 AM 75.9 °F - 71.1 °F 85% 30.03 in 10.0 mi ESE 5.8 mph - N/A   Clear
9:53 AM 82.0 °F 86.7 °F 72.0 °F 71% 30.04 in 10.0 mi South 5.8 mph - N/A   Clear
10:53 AM 84.9 °F 91.4 °F 73.0 °F 67% 30.04 in 10.0 mi SSW 8.1 mph - N/A   Clear
11:53 AM 88.0 °F 95.6 °F 73.0 °F 61% 30.04 in 10.0 mi SSW 8.1 mph - N/A   Clear
12:53 PM 89.1 °F 97.0 °F 73.0 °F 59% 30.03 in 10.0 mi South 10.4 mph - N/A   Clear
1:53 PM 90.0 °F 96.9 °F 72.0 °F 55% 30.02 in 10.0 mi South 11.5 mph 17.3 mph N/A   Partly Cloudy
2:53 PM 91.0 °F 98.2 °F 72.0 °F 53% 29.99 in 10.0 mi South 9.2 mph - N/A   Clear
3:53 PM 91.9 °F 99.5 °F 72.0 °F 52% 29.99 in 10.0 mi South 9.2 mph - N/A   Partly Cloudy
4:53 PM 91.0 °F 98.2 °F 72.0 °F 53% 29.98 in 10.0 mi South 8.1 mph - N/A   Clear
5:53 PM 90.0 °F 96.9 °F 72.0 °F 55% 29.99 in 10.0 mi South 8.1 mph - N/A   Clear
6:53 PM 87.1 °F 93.6 °F 72.0 °F 61% 30.00 in 10.0 mi SSE 4.6 mph - N/A   Clear
7:53 PM 82.9 °F 87.5 °F 71.1 °F 67% 30.01 in 10.0 mi SSE 4.6 mph - N/A   Clear
8:53 PM 82.0 °F 87.4 °F 73.0 °F 74% 30.01 in 10.0 mi South 8.1 mph - N/A   Clear
9:53 PM 82.0 °F 86.7 °F 72.0 °F 71% 30.01 in 10.0 mi South 6.9 mph - N/A   Clear
10:53 PM 79.0 °F - 72.0 °F 79% 30.03 in 10.0 mi SSW 4.6 mph - N/A   Clear
11:53 PM 78.1 °F - 71.1 °F 79% 30.03 in 9.0 mi Calm Calm - N/A   Clear